Hourly Data Report for October 23, 2017

All times are specified in Local Standard Time (LST). Add 1 hour to adjust for Daylight Saving Time where and when it is observed.

QIKIQTARJUAQ A
NUNAVUT

67°32'48.000" N
64°01'54.000" W
5.50 m
2400577
YVM

Download Data

Hourly Data (October 2017)
Hourly Data Report for October 23, 2017
Temp Definition
°C
Dew Point Temp Definition
°C
Rel Hum Definition
%
Wind Dir Definition
10's deg

Wind Spd Definition
km/h
Visibility Definition
km
Stn Press Definition
kPa
Hmdx Definition


Wind Chill Definition


Weather Definition


TIME
00:00 Legend Double Dagger -2.2 -6.6 72 22 13 16.1 101.26   -7 LegendNANA
01:00 Legend Double Dagger -2.5 -5.5 80 21 22 16.1 101.12   -9 LegendNANA
02:00 Legend Double Dagger -2.3 -6.0 76 22 11 16.1 101.03   -6 LegendNANA
03:00 Legend Double Dagger -2.7 -6.0 78 21 18 16.1 100.90   -8 LegendNANA
04:00 Legend Double Dagger -2.1 -6.1 74 20 15 16.1 100.75   -7 LegendNANA
05:00 Legend Double Dagger -1.3 -5.2 75 20 24 16.1 100.58   -7 LegendNANA
06:00 Legend Double Dagger 1.3 -5.6 60 17 15 16.1 100.43     LegendNANA
07:00 Legend Double Dagger 0.9 -4.7 66 20 17 16.1 100.28     LegendNANA
08:00 Legend Double Dagger 1.2 -4.5 66 19 18 16.1 100.15     LegendNANA
09:00 Legend Double Dagger 3.0 -4.3 59 21 17 16.1 99.98     LegendNANA
10:00 Legend Double Dagger 5.6 -5.5 45 LegendMM 5 16.1 99.80     LegendNANA
11:00 Legend Double Dagger 7.4 -6.6 36 20 18 16.1 99.64     LegendNANA
12:00 Legend Double Dagger 6.4 -4.2 47 LegendMM 15 16.1 99.54     LegendNANA
13:00 Legend Double Dagger 7.0 -4.5 44 15 41 16.1 99.44     LegendNANA
14:00 Legend Double Dagger 6.3 -2.6 53 26 17 16.1 99.52     LegendNANA
15:00 Legend Double Dagger 8.1 -0.4 55 16 43 16.1 99.35     LegendNANA
16:00 Legend Double Dagger 2.5 -1.4 76 3 11 16.1 99.45     LegendNANA
17:00 Legend Double Dagger 1.4 -1.1 84 27 9 16.1 99.40     LegendNANA
18:00 Legend Double Dagger 2.3 -1.3 77 11 5 16.1 99.39     LegendNANA
19:00 Legend Double Dagger 1.6 -0.9 84   0 16.1 99.36     LegendNANA
20:00 Legend Double Dagger 2.0 -1.1 80 LegendMM 4 16.1 99.32     LegendNANA
21:00 Legend Double Dagger 2.7 0.1 83   0 16.1 99.27     LegendNANA
22:00 Legend Double Dagger 2.9 -0.1 81 23 5 16.1 99.22     Rain
23:00 Legend Double Dagger 2.3 0.2 86 18 5 16.1 99.14     LegendNANA

Notes on Data Quality.

Legend

  • E = Estimated
  • M = Missing
  • NA = Not Available
  • ‡ = Partner data that is not subject to review by the National Climate Archives
Date modified: